Terug naar catalogus

STARLINK-32275

ActiefCommunicatieVLEO
NORAD 60360·PAYLOAD·🇺🇸 United States

Gelanceerd Aug 4, 2024 vanaf Vandenberg Space Force Base

Loading…

Volgende Passages (komende 24 uur)

TLE

VersSource: CelesTrak SupGP

Epoch: Sep 14, 2026, 21:32 UTC

1 60360C 24138F   26257.89770833 -.00047995  00000+0 -15436-2 0  2573
2 60360  53.1575 149.2646 0001434  93.8400  34.6081 15.31721072    13

Volg STARLINK-32275 in realtime met AllMySat

Download on the App Store